| time (UTC) | temp F | wind direction | speed knots | gust knots | rain 1hr in | rain 24hr in | rain mn in | humidity % | barometer mb |
| 20260505024005 | 71 | 243 | 0.0 | 0.0 | 0.00 | 0.00 | 0.00 | 93 | 1013.3 |
| 20260505023010 | 71 | 243 | 0.0 | 0.0 | 0.00 | 0.00 | 0.00 | 94 | 1013.5 |
| 20260505022006 | 72 | 243 | 0.0 | 0.0 | 0.00 | 0.00 | 0.00 | 93 | 1013.7 |
| 20260505021010 | 72 | 243 | 0.0 | 0.0 | 0.00 | 0.00 | 0.00 | 93 | 1013.9 |
| 20260505020005 | 72 | 243 | 0.0 | 0.0 | 0.00 | 0.00 | 0.00 | 93 | 1014.2 |
| 20260505015005 | 72 | 243 | 0.0 | 0.0 | 0.00 | 0.00 | 0.00 | 93 | 1014.1 |
| 20260505012005 | 71 | 244 | 0.0 | 0.0 | 0.00 | 0.00 | 0.00 | 92 | 1014.6 |
| 20260505011005 | 71 | 243 | 0.0 | 0.0 | 0.00 | 0.00 | 0.00 | 94 | 1014.6 |
| 20260505010006 | 71 | 243 | 0.0 | 0.9 | 0.00 | 0.00 | 0.00 | 94 | 1014.8 |
| 20260505005005 | 70 | 243 | 0.0 | 0.0 | 0.00 | 0.00 | 0.00 | 95 | 1015.2 |
| 20260505004006 | 70 | 243 | 0.0 | 0.0 | 0.00 | 0.00 | 0.00 | 96 | 1015.3 |
| 20260505003006 | 69 | 243 | 0.0 | 0.0 | 0.00 | 0.00 | 0.00 | 96 | 1015.3 |
| 20260505001006 | 68 | 243 | 0.0 | 0.0 | 0.00 | 0.00 | 0.00 | 97 | 1015.6 |
| 20260505000010 | 67 | 243 | 0.0 | 0.0 | 0.00 | 0.00 | 0.00 | 97 | 1015.6 |
| 20260504235005 | 67 | 243 | 0.0 | 0.0 | 0.00 | 0.00 | 0.00 | 97 | 1015.7 |
| 20260504234006 | 66 | 243 | 0.0 | 0.0 | 0.00 | 0.00 | 0.00 | 97 | 1015.8 |
| 20260504233006 | 66 | 243 | 0.0 | 0.0 | 0.00 | 0.00 | 0.00 | 97 | 1015.8 |
| 20260504231006 | 66 | 243 | 0.0 | 0.0 | 0.00 | 0.00 | 0.00 | 98 | 1015.9 |
| 20260504230010 | 65 | 243 | 0.0 | 0.0 | 0.00 | 0.00 | 0.00 | 98 | 1015.7 |
| 20260504225006 | 65 | 243 | 0.0 | 0.0 | 0.00 | 0.00 | 0.00 | 98 | 1015.8 |
| 20260504224006 | 65 | 243 | 0.0 | 0.0 | 0.00 | 0.00 | 0.00 | 99 | 1015.8 |
| 20260504222006 | 64 | 243 | 0.0 | 0.0 | 0.00 | 0.00 | 0.00 | 99 | 1015.7 |
| 20260504221006 | 64 | 243 | 0.0 | 0.0 | 0.00 | 0.00 | 0.00 | 99 | 1015.7 |
| 20260504220006 | 64 | 243 | 0.0 | 0.0 | 0.00 | 0.00 | 0.00 | 99 | 1015.7 |
| 20260504215005 | 64 | 243 | 0.0 | 0.0 | 0.00 | 0.00 | 0.00 | 99 | 1015.7 |
| 20260504212006 | 63 | 243 | 0.0 | 0.0 | 0.00 | 0.00 | 0.00 | 98 | 1015.6 |
| 20260504211006 | 63 | 243 | 0.0 | 0.0 | 0.00 | 0.00 | 0.00 | 98 | 1015.5 |
| 20260504210005 | 63 | 243 | 0.0 | 0.0 | 0.00 | 0.00 | 0.00 | 98 | 1015.4 |
| 20260504205005 | 63 | 243 | 0.0 | 0.0 | 0.00 | 0.00 | 0.00 | 98 | 1015.4 |
| 20260504204006 | 63 | 243 | 0.0 | 0.0 | 0.00 | 0.00 | 0.00 | 98 | 1015.3 |
| 20260504202005 | 63 | 243 | 0.0 | 0.0 | 0.00 | 0.00 | 0.00 | 98 | 1015.3 |
| 20260504201005 | 63 | 243 | 0.0 | 0.0 | 0.00 | 0.00 | 0.00 | 98 | 1015.2 |
| 20260504200006 | 64 | 243 | 0.0 | 0.0 | 0.00 | 0.00 | 0.00 | 98 | 1015.0 |
| 20260504195005 | 64 | 243 | 0.0 | 0.0 | 0.00 | 0.00 | 0.00 | 98 | 1014.9 |
| 20260504194006 | 64 | 243 | 0.0 | 0.0 | 0.00 | 0.00 | 0.00 | 98 | 1014.7 |
| 20260504193006 | 64 | 243 | 0.0 | 0.0 | 0.00 | 0.00 | 0.00 | 98 | 1014.6 |
| 20260504192005 | 64 | 243 | 0.0 | 0.0 | 0.00 | 0.00 | 0.00 | 98 | 1014.5 |
| 20260504185005 | 64 | 243 | 0.0 | 0.0 | 0.00 | 0.00 | 0.00 | 98 | 1014.5 |
| 20260504183005 | 64 | 243 | 0.0 | 0.0 | 0.00 | 0.00 | 0.00 | 98 | 1014.4 |
| 20260504182005 | 64 | 244 | 0.0 | 0.0 | 0.00 | 0.00 | 0.00 | 98 | 1014.3 |
| 20260504181006 | 65 | 243 | 0.0 | 0.0 | 0.00 | 0.00 | 0.00 | 98 | 1014.2 |
| 20260504180006 | 65 | 243 | 0.0 | 0.0 | 0.00 | 0.00 | 0.00 | 98 | 1014.1 |
| 20260504175005 | 65 | 243 | 0.0 | 0.0 | 0.00 | 0.00 | 0.00 | 98 | 1014.0 |
| 20260504173010 | 65 | 243 | 0.0 | 0.0 | 0.00 | 0.00 | 0.00 | 98 | 1014.1 |
| 20260504172005 | 65 | 243 | 0.0 | 0.0 | 0.00 | 0.00 | 0.00 | 98 | 1014.2 |
| 20260504171005 | 66 | 243 | 0.0 | 0.0 | 0.00 | 0.00 | 0.00 | 98 | 1014.1 |
| 20260504151005 | 66 | 243 | 0.0 | 0.0 | 0.00 | 0.00 | 0.00 | 98 | 1014.8 |
| 20260504141005 | 66 | 243 | 0.0 | 0.0 | 0.00 | 0.00 | 0.00 | 98 | 1015.2 |
| 20260504082005 | 68 | 243 | 0.0 | 0.0 | 0.00 | 0.00 | 0.02 | 96 | 1015.5 |
| 20260504050006 | 70 | 267 | 0.0 | 0.0 | 0.00 | 0.00 | 0.02 | 93 | 1014.0 |
| 20260504045005 | 71 | 222 | 0.0 | 0.0 | 0.00 | 0.00 | 0.02 | 93 | 1014.0 |
| 20260504044005 | 72 | 222 | 0.0 | 0.0 | 0.00 | 0.00 | 0.02 | 92 | 1014.0 |
| 20260504043005 | 73 | 222 | 0.0 | 0.9 | 0.00 | 0.00 | 0.02 | 90 | 1014.0 |
| 20260504042005 | 73 | 222 | 0.0 | 0.9 | 0.00 | 0.00 | 0.02 | 86 | 1014.0 |
| 20260504040006 | 73 | 222 | 0.0 | 0.0 | 0.00 | 0.00 | 0.02 | 92 | 1014.0 |
| 20260504035005 | 72 | 222 | 0.0 | 0.0 | 0.00 | 0.00 | 0.02 | 92 | 1014.1 |
| 20260504032006 | 73 | 222 | 0.0 | 0.9 | 0.00 | 0.00 | 0.02 | 86 | 1014.4 |
| 20260504031005 | 74 | 222 | 0.0 | 1.7 | 0.00 | 0.00 | 0.02 | 82 | 1014.5 |
| 20260504030006 | 73 | 212 | 0.0 | 0.9 | 0.00 | 0.00 | 0.02 | 83 | 1014.6 |
| 20260504025005 | 73 | 251 | 0.0 | 0.0 | 0.00 | 0.00 | 0.02 | 91 | 1014.6 |